Time,TemperatureF,DewpointF,PressureIn,WindDirection,WindDirectionDegrees,WindSpeedMPH,WindSpeedGustMPH,Humidity,HourlyPrecipIn,Conditions,Clouds,dailyrainin,SoftwareType,DateUTC
2013-02-16 00:00:00,40.1,-99.9,30.15,West,272,0.0,0.0,-999,0.00,,,0.00,homebrew,2013-02-16 08:00:00,
2013-02-16 00:05:00,40.3,-99.9,30.15,West,272,0.0,0.0,-999,0.00,,,0.00,homebrew,2013-02-16 08:05:00,
2013-02-16 00:10:00,40.2,-99.9,30.14,West,272,0.0,0.0,-999,0.00,,,0.00,homebrew,2013-02-16 08:10:00,
2013-02-16 00:15:00,40.0,-99.9,30.14,West,272,0.0,0.0,-999,0.00,,,0.00,homebrew,2013-02-16 08:15:00,
2013-02-16 00:20:00,39.6,-99.9,30.14,West,272,0.0,0.0,-999,0.00,,,0.00,homebrew,2013-02-16 08:20:00,
2013-02-16 00:25:00,39.6,-99.9,30.14,West,272,0.0,0.0,-999,0.00,,,0.00,homebrew,2013-02-16 08:25:00,
2013-02-16 00:30:00,39.6,-99.9,30.14,West,272,0.0,0.0,-999,0.00,,,0.00,homebrew,2013-02-16 08:30:00,
2013-02-16 00:35:00,39.8,-99.9,30.14,West,272,0.0,0.0,-999,0.00,,,0.00,homebrew,2013-02-16 08:35:00,
2013-02-16 00:40:00,39.8,-99.9,30.14,West,272,0.0,0.0,-999,0.00,,,0.00,homebrew,2013-02-16 08:40:00,
2013-02-16 00:45:00,39.9,-99.9,30.14,West,272,0.0,0.0,-999,0.00,,,0.00,homebrew,2013-02-16 08:45:00,
2013-02-16 00:50:00,39.5,-99.9,30.14,West,272,0.0,0.0,-999,0.00,,,0.00,homebrew,2013-02-16 08:50:00,
2013-02-16 00:55:00,39.4,-99.9,30.14,West,272,0.0,0.0,-999,0.00,,,0.00,homebrew,2013-02-16 08:55:00,
2013-02-16 01:05:00,39.2,-99.9,30.14,West,272,0.0,0.0,-999,0.00,,,0.00,homebrew,2013-02-16 09:05:00,
2013-02-16 01:10:00,39.0,-99.9,30.14,West,272,0.0,0.0,-999,0.00,,,0.00,homebrew,2013-02-16 09:10:00,
2013-02-16 01:15:00,38.8,-99.9,30.14,West,272,0.0,0.0,-999,0.00,,,0.00,homebrew,2013-02-16 09:15:00,
2013-02-16 01:20:00,38.6,-99.9,30.14,West,272,0.0,0.0,-999,0.00,,,0.00,homebrew,2013-02-16 09:20:00,
2013-02-16 01:25:00,38.5,-99.9,30.14,West,272,0.0,0.0,-999,0.00,,,0.00,homebrew,2013-02-16 09:25:00,
2013-02-16 01:30:00,38.6,-99.9,30.14,West,272,0.0,0.0,-999,0.00,,,0.00,homebrew,2013-02-16 09:30:00,
2013-02-16 01:35:00,38.4,-99.9,30.14,West,272,0.0,0.0,-999,0.00,,,0.00,homebrew,2013-02-16 09:35:00,
2013-02-16 01:40:00,38.3,-99.9,30.14,West,272,0.0,0.0,-999,0.00,,,0.00,homebrew,2013-02-16 09:40:00,
2013-02-16 01:45:00,38.3,-99.9,30.14,West,272,0.0,0.0,-999,0.00,,,0.00,homebrew,2013-02-16 09:45:00,
2013-02-16 01:50:00,38.3,-99.9,30.14,West,272,0.0,0.0,-999,0.00,,,0.00,homebrew,2013-02-16 09:50:00,
2013-02-16 01:55:00,38.3,-99.9,30.14,West,272,0.0,0.0,-999,0.00,,,0.00,homebrew,2013-02-16 09:55:00,
2013-02-16 02:00:00,38.3,-99.9,30.14,West,272,0.0,0.0,-999,0.00,,,0.00,homebrew,2013-02-16 10:00:00,
2013-02-16 02:10:00,38.2,-99.9,30.14,West,272,0.0,0.0,-999,0.00,,,0.00,homebrew,2013-02-16 10:10:00,
2013-02-16 02:15:00,38.2,-99.9,30.14,West,272,0.0,0.0,-999,0.00,,,0.00,homebrew,2013-02-16 10:15:00,
2013-02-16 02:20:00,38.1,-99.9,30.14,West,272,0.0,0.0,-999,0.00,,,0.00,homebrew,2013-02-16 10:20:00,
2013-02-16 02:25:00,38.1,-99.9,30.14,West,272,0.0,0.0,-999,0.00,,,0.00,homebrew,2013-02-16 10:25:00,
2013-02-16 02:30:00,38.3,-99.9,30.14,West,272,0.0,0.0,-999,0.00,,,0.00,homebrew,2013-02-16 10:30:00,
2013-02-16 02:35:00,38.7,-99.9,30.14,West,272,0.0,0.0,-999,0.00,,,0.00,homebrew,2013-02-16 10:35:00,
2013-02-16 02:40:00,39.1,-99.9,30.14,West,272,0.0,0.0,-999,0.00,,,0.00,homebrew,2013-02-16 10:40:00,
2013-02-16 02:45:00,38.4,-99.9,30.14,West,272,0.0,0.0,-999,0.00,,,0.00,homebrew,2013-02-16 10:45:00,
2013-02-16 02:50:00,38.1,-99.9,30.14,West,271,0.0,0.0,-999,0.00,,,0.00,homebrew,2013-02-16 10:50:00,
2013-02-16 03:00:00,37.9,-99.9,30.14,SE,144,0.0,0.0,-999,0.00,,,0.00,homebrew,2013-02-16 11:00:00,
2013-02-16 03:05:00,37.9,-99.9,30.13,SE,144,0.0,0.0,-999,0.00,,,0.00,homebrew,2013-02-16 11:05:00,
2013-02-16 03:10:00,38.0,-99.9,30.13,SE,144,0.0,0.0,-999,0.00,,,0.00,homebrew,2013-02-16 11:10:00,
2013-02-16 03:15:00,38.2,-99.9,30.13,SE,144,0.0,0.0,-999,0.00,,,0.00,homebrew,2013-02-16 11:15:00,
2013-02-16 03:20:00,38.6,-99.9,30.13,SE,144,0.0,0.0,-999,0.00,,,0.00,homebrew,2013-02-16 11:20:00,
2013-02-16 03:25:00,39.1,-99.9,30.13,SE,144,0.0,0.0,-999,0.00,,,0.00,homebrew,2013-02-16 11:25:00,
2013-02-16 03:30:00,39.9,-99.9,30.13,SSE,159,0.5,0.0,-999,0.00,,,0.00,homebrew,2013-02-16 11:30:00,
2013-02-16 03:35:00,41.8,-99.9,30.13,SSW,195,1.2,4.4,-999,0.00,,,0.00,homebrew,2013-02-16 11:35:00,
2013-02-16 03:40:00,42.5,-99.9,30.13,SSW,202,1.8,5.7,-999,0.00,,,0.00,homebrew,2013-02-16 11:40:00,
2013-02-16 03:45:00,42.8,-99.9,30.13,SW,215,1.5,5.1,-999,0.00,,,0.00,homebrew,2013-02-16 11:45:00,
2013-02-16 03:50:00,43.0,-99.9,30.13,SSW,207,1.2,4.5,-999,0.00,,,0.00,homebrew,2013-02-16 11:50:00,
2013-02-16 03:55:00,43.1,-99.9,30.12,SW,220,1.9,4.7,-999,0.00,,,0.00,homebrew,2013-02-16 11:55:00,
2013-02-16 04:05:00,43.9,-99.9,30.13,SW,229,2.5,9.6,-999,0.00,,,0.00,homebrew,2013-02-16 12:05:00,
2013-02-16 04:10:00,44.0,-99.9,30.13,SSW,204,3.5,6.5,-999,0.00,,,0.00,homebrew,2013-02-16 12:10:00,
2013-02-16 04:15:00,44.1,-99.9,30.12,SSW,212,1.6,9.2,-999,0.00,,,0.00,homebrew,2013-02-16 12:15:00,
2013-02-16 04:20:00,44.6,-99.9,30.13,SSW,193,1.8,7.3,-999,0.00,,,0.00,homebrew,2013-02-16 12:20:00,
2013-02-16 04:25:00,45.0,-99.9,30.13,SSW,203,3.5,8.1,-999,0.00,,,0.00,homebrew,2013-02-16 12:25:00,
2013-02-16 04:30:00,45.1,-99.9,30.13,SSW,208,2.2,8.9,-999,0.00,,,0.00,homebrew,2013-02-16 12:30:00,
2013-02-16 04:35:00,45.0,-99.9,30.13,South,185,2.0,9.5,-999,0.00,,,0.00,homebrew,2013-02-16 12:35:00,
2013-02-16 04:40:00,44.9,-99.9,30.13,SSW,198,2.2,8.5,-999,0.00,,,0.00,homebrew,2013-02-16 12:40:00,
2013-02-16 04:45:00,44.8,-99.9,30.13,SSW,194,3.0,8.8,-999,0.00,,,0.00,homebrew,2013-02-16 12:45:00,
2013-02-16 04:55:00,44.7,-99.9,30.13,South,188,0.8,7.0,-999,0.00,,,0.00,homebrew,2013-02-16 12:55:00,
2013-02-16 05:00:00,44.7,-99.9,30.13,SSW,207,2.3,7.3,-999,0.00,,,0.00,homebrew,2013-02-16 13:00:00,
2013-02-16 05:05:00,44.7,-99.9,30.13,SSW,211,1.6,7.3,-999,0.00,,,0.00,homebrew,2013-02-16 13:05:00,
2013-02-16 05:10:00,44.6,-99.9,30.13,SSW,202,2.6,7.3,-999,0.00,,,0.00,homebrew,2013-02-16 13:10:00,
2013-02-16 05:15:00,44.7,-99.9,30.13,SSW,212,2.5,7.5,-999,0.00,,,0.00,homebrew,2013-02-16 13:15:00,
2013-02-16 05:20:00,44.7,-99.9,30.13,SSW,200,2.0,11.0,-999,0.00,,,0.00,homebrew,2013-02-16 13:20:00,
2013-02-16 05:25:00,44.7,-99.9,30.13,SSW,204,4.1,8.1,-999,0.00,,,0.00,homebrew,2013-02-16 13:25:00,
2013-02-16 05:30:00,44.8,-99.9,30.12,SSW,210,2.9,9.1,-999,0.00,,,0.00,homebrew,2013-02-16 13:30:00,
2013-02-16 05:35:00,44.8,-99.9,30.13,SSW,206,2.7,8.2,-999,0.00,,,0.00,homebrew,2013-02-16 13:35:00,
2013-02-16 05:40:00,44.9,-99.9,30.13,WSW,241,1.2,7.1,-999,0.00,,,0.00,homebrew,2013-02-16 13:40:00,
2013-02-16 05:45:00,44.8,-99.9,30.13,SSW,194,1.4,4.8,-999,0.00,,,0.00,homebrew,2013-02-16 13:45:00,
2013-02-16 05:50:00,44.8,-99.9,30.13,SSW,208,1.0,5.7,-999,0.00,,,0.00,homebrew,2013-02-16 13:50:00,
2013-02-16 06:00:00,44.7,-99.9,30.13,SSW,208,3.0,10.1,-999,0.00,,,0.00,homebrew,2013-02-16 14:00:00,
2013-02-16 06:05:00,44.7,-99.9,30.14,South,188,2.4,5.7,-999,0.00,,,0.00,homebrew,2013-02-16 14:05:00,
2013-02-16 06:10:00,44.7,-99.9,30.14,SSW,203,1.4,7.6,-999,0.00,,,0.00,homebrew,2013-02-16 14:10:00,
2013-02-16 06:15:00,44.8,-99.9,30.14,SSW,211,2.0,4.7,-999,0.00,,,0.00,homebrew,2013-02-16 14:15:00,
2013-02-16 06:20:00,44.9,-99.9,30.14,SW,229,2.9,7.4,-999,0.00,,,0.00,homebrew,2013-02-16 14:20:00,
2013-02-16 06:25:00,45.0,-99.9,30.14,South,191,1.8,7.2,-999,0.00,,,0.00,homebrew,2013-02-16 14:25:00,
2013-02-16 06:30:00,45.0,-99.9,30.14,SSW,202,2.9,6.7,-999,0.00,,,0.00,homebrew,2013-02-16 14:30:00,
2013-02-16 06:35:00,45.0,-99.9,30.14,SSW,197,2.4,6.3,-999,0.00,,,0.00,homebrew,2013-02-16 14:35:00,
2013-02-16 06:40:00,45.0,-99.9,30.14,SSW,192,2.4,5.7,-999,0.00,,,0.00,homebrew,2013-02-16 14:40:00,
2013-02-16 06:45:00,45.1,-99.9,30.14,South,191,2.7,6.5,-999,0.00,,,0.00,homebrew,2013-02-16 14:45:00,
2013-02-16 06:55:00,45.0,-99.9,30.14,SSW,203,3.4,7.3,-999,0.00,,,0.00,homebrew,2013-02-16 14:55:00,
2013-02-16 07:00:00,45.0,-99.9,30.14,South,191,3.9,11.8,-999,0.00,,,0.00,homebrew,2013-02-16 15:00:00,
2013-02-16 07:05:00,45.1,-99.9,30.14,SSW,202,4.2,8.9,-999,0.00,,,0.00,homebrew,2013-02-16 15:05:00,
2013-02-16 07:10:00,45.2,-99.9,30.14,SSW,202,3.6,9.3,-999,0.00,,,0.00,homebrew,2013-02-16 15:10:00,
2013-02-16 07:15:00,45.2,-99.9,30.14,SSW,197,3.1,8.2,-999,0.00,,,0.00,homebrew,2013-02-16 15:15:00,
2013-02-16 07:20:00,45.2,-99.9,30.14,SSW,203,3.4,8.0,-999,0.00,,,0.00,homebrew,2013-02-16 15:20:00,
2013-02-16 07:25:00,45.2,-99.9,30.14,SSW,196,2.5,10.5,-999,0.00,,,0.00,homebrew,2013-02-16 15:25:00,
2013-02-16 07:30:00,45.2,-99.9,30.14,South,180,2.2,9.7,-999,0.00,,,0.00,homebrew,2013-02-16 15:30:00,
2013-02-16 07:35:00,45.2,-99.9,30.14,South,191,2.7,10.7,-999,0.00,,,0.00,homebrew,2013-02-16 15:35:00,
2013-02-16 07:40:00,45.2,-99.9,30.14,South,189,2.9,9.6,-999,0.00,,,0.00,homebrew,2013-02-16 15:40:00,
2013-02-16 07:45:00,45.3,-99.9,30.14,SSW,199,3.4,8.0,-999,0.00,,,0.00,homebrew,2013-02-16 15:45:00,
2013-02-16 07:50:00,45.4,-99.9,30.14,SSW,193,2.7,7.3,-999,0.00,,,0.00,homebrew,2013-02-16 15:50:00,
2013-02-16 07:55:00,45.4,-99.9,30.14,SSW,195,2.5,7.8,-999,0.00,,,0.00,homebrew,2013-02-16 15:55:00,
2013-02-16 08:00:00,45.5,-99.9,30.14,SSW,199,2.6,5.0,-999,0.00,,,0.00,homebrew,2013-02-16 16:00:00,
2013-02-16 08:05:00,45.6,-99.9,30.14,SSW,206,3.9,7.3,-999,0.00,,,0.00,homebrew,2013-02-16 16:05:00,
2013-02-16 08:10:00,45.7,-99.9,30.14,SSW,206,4.0,10.1,-999,0.00,,,0.00,homebrew,2013-02-16 16:10:00,
2013-02-16 08:15:00,45.7,-99.9,30.14,SSW,213,4.1,11.5,-999,0.00,,,0.00,homebrew,2013-02-16 16:15:00,
2013-02-16 08:20:00,45.8,-99.9,30.14,SSW,207,4.6,12.1,-999,0.00,,,0.00,homebrew,2013-02-16 16:20:00,
2013-02-16 08:25:00,45.8,-99.9,30.14,SSW,211,3.9,12.1,-999,0.00,,,0.00,homebrew,2013-02-16 16:25:00,
2013-02-16 08:30:00,45.9,-99.9,30.14,SSW,212,5.2,11.0,-999,0.00,,,0.00,homebrew,2013-02-16 16:30:00,
2013-02-16 08:35:00,46.0,-99.9,30.14,SSW,201,5.1,9.3,-999,0.00,,,0.00,homebrew,2013-02-16 16:35:00,
2013-02-16 08:40:00,46.0,-99.9,30.14,SSW,198,4.9,14.4,-999,0.00,,,0.00,homebrew,2013-02-16 16:40:00,
2013-02-16 08:45:00,46.0,-99.9,30.14,SSW,206,4.3,8.6,-999,0.00,,,0.00,homebrew,2013-02-16 16:45:00,
2013-02-16 08:50:00,46.0,-99.9,30.14,SSW,207,3.5,9.8,-999,0.00,,,0.00,homebrew,2013-02-16 16:50:00,
2013-02-16 08:55:00,46.0,-99.9,30.14,SSW,198,3.5,10.1,-999,0.00,,,0.00,homebrew,2013-02-16 16:55:00,
2013-02-16 09:00:00,46.0,-99.9,30.14,SSW,211,4.9,10.0,-999,0.00,,,0.00,homebrew,2013-02-16 17:00:00,
2013-02-16 09:05:00,46.1,-99.9,30.14,SSW,203,4.1,10.1,-999,0.00,,,0.00,homebrew,2013-02-16 17:05:00,
2013-02-16 09:10:00,46.2,-99.9,30.14,SSW,208,5.6,12.7,-999,0.00,,,0.00,homebrew,2013-02-16 17:10:00,
2013-02-16 09:15:00,46.3,-99.9,30.14,SW,214,6.0,15.4,-999,0.00,,,0.00,homebrew,2013-02-16 17:15:00,
2013-02-16 09:20:00,46.4,-99.9,30.14,SSW,209,5.2,14.7,-999,0.00,,,0.00,homebrew,2013-02-16 17:20:00,
2013-02-16 09:25:00,46.5,-99.9,30.14,SSW,212,5.7,12.5,-999,0.00,,,0.00,homebrew,2013-02-16 17:25:00,
2013-02-16 09:35:00,46.7,-99.9,30.13,SSW,210,4.9,13.2,-999,0.00,,,0.00,homebrew,2013-02-16 17:35:00,
2013-02-16 09:40:00,46.9,-99.9,30.14,SSW,207,4.3,12.0,-999,0.00,,,0.00,homebrew,2013-02-16 17:40:00,
2013-02-16 09:45:00,46.9,-99.9,30.13,SSW,208,5.3,13.7,-999,0.00,,,0.00,homebrew,2013-02-16 17:45:00,
2013-02-16 09:50:00,47.0,-99.9,30.13,SSW,209,5.2,13.8,-999,0.00,,,0.00,homebrew,2013-02-16 17:50:00,
2013-02-16 09:55:00,47.1,-99.9,30.13,SSW,207,4.5,12.4,-999,0.00,,,0.00,homebrew,2013-02-16 17:55:00,
2013-02-16 10:00:00,47.1,-99.9,30.14,SSW,206,5.2,13.9,-999,0.00,,,0.00,homebrew,2013-02-16 18:00:00,
2013-02-16 10:05:00,47.0,-99.9,30.14,SSW,205,5.3,21.8,-999,0.00,,,0.00,homebrew,2013-02-16 18:05:00,
2013-02-16 10:10:00,46.9,-99.9,30.14,SSW,211,5.8,19.6,-999,0.00,,,0.00,homebrew,2013-02-16 18:10:00,
2013-02-16 10:15:00,46.9,-99.9,30.14,SSW,202,4.2,16.8,-999,0.00,,,0.00,homebrew,2013-02-16 18:15:00,
2013-02-16 10:25:00,47.1,-99.9,30.14,SSW,205,5.1,11.6,-999,0.00,,,0.00,homebrew,2013-02-16 18:25:00,
2013-02-16 10:30:00,47.0,-99.9,30.14,SW,214,5.7,14.2,-999,0.00,,,0.00,homebrew,2013-02-16 18:30:00,
2013-02-16 10:35:00,47.0,-99.9,30.14,SSW,206,4.9,20.5,-999,0.00,,,0.00,homebrew,2013-02-16 18:35:00,
2013-02-16 10:40:00,47.0,-99.9,30.14,SSW,211,5.4,10.7,-999,0.00,,,0.00,homebrew,2013-02-16 18:40:00,
2013-02-16 10:45:00,47.1,-99.9,30.14,SSW,212,5.4,12.4,-999,0.00,,,0.00,homebrew,2013-02-16 18:45:00,
2013-02-16 10:50:00,47.4,-99.9,30.13,SSW,199,4.8,12.6,-999,0.00,,,0.00,homebrew,2013-02-16 18:50:00,
2013-02-16 10:55:00,47.8,-99.9,30.13,SSW,199,5.2,12.2,-999,0.00,,,0.00,homebrew,2013-02-16 18:55:00,
2013-02-16 11:00:00,47.7,-99.9,30.13,SSW,204,4.9,13.8,-999,0.00,,,0.00,homebrew,2013-02-16 19:00:00,
2013-02-16 11:05:00,48.1,-99.9,30.13,SSW,210,4.5,13.6,-999,0.00,,,0.00,homebrew,2013-02-16 19:05:00,
2013-02-16 11:15:00,47.8,-99.9,30.13,SSW,210,4.9,14.3,-999,0.00,,,0.00,homebrew,2013-02-16 19:15:00,
2013-02-16 11:20:00,47.7,-99.9,30.13,SSW,204,5.8,12.0,-999,0.00,,,0.00,homebrew,2013-02-16 19:20:00,
2013-02-16 11:25:00,48.0,-99.9,30.12,SSW,199,4.5,12.9,-999,0.00,,,0.00,homebrew,2013-02-16 19:25:00,
2013-02-16 11:30:00,48.8,-99.9,30.13,SSW,209,4.7,13.9,-999,0.00,,,0.00,homebrew,2013-02-16 19:30:00,
2013-02-16 11:35:00,48.9,-99.9,30.13,SW,214,5.2,14.6,-999,0.00,,,0.00,homebrew,2013-02-16 19:35:00,
2013-02-16 11:40:00,48.9,-99.9,30.12,SSW,209,5.3,11.1,-999,0.00,,,0.00,homebrew,2013-02-16 19:40:00,
2013-02-16 11:45:00,49.9,-99.9,30.13,SSW,212,5.2,23.2,-999,0.00,,,0.00,homebrew,2013-02-16 19:45:00,
2013-02-16 11:50:00,49.9,-99.9,30.13,SSW,206,4.5,18.1,-999,0.00,,,0.00,homebrew,2013-02-16 19:50:00,
2013-02-16 11:55:00,50.0,-99.9,30.13,SSW,211,4.8,13.8,-999,0.00,,,0.00,homebrew,2013-02-16 19:55:00,
2013-02-16 12:05:00,52.9,-99.9,30.12,SSW,207,4.6,10.5,-999,0.00,,,0.00,homebrew,2013-02-16 20:05:00,
2013-02-16 12:10:00,53.3,-99.9,30.12,SSW,203,6.1,11.2,-999,0.00,,,0.00,homebrew,2013-02-16 20:10:00,
2013-02-16 12:15:00,52.2,-99.9,30.12,SSW,211,6.7,20.3,-999,0.00,,,0.00,homebrew,2013-02-16 20:15:00,
2013-02-16 12:20:00,52.0,-99.9,30.12,SSW,205,5.3,20.0,-999,0.00,,,0.00,homebrew,2013-02-16 20:20:00,
2013-02-16 12:25:00,51.9,-99.9,30.11,SSW,209,4.8,14.6,-999,0.00,,,0.00,homebrew,2013-02-16 20:25:00,
2013-02-16 12:30:00,51.3,-99.9,30.12,SSW,209,5.1,13.7,-999,0.00,,,0.00,homebrew,2013-02-16 20:30:00,
2013-02-16 12:35:00,50.6,-99.9,30.11,SSW,209,6.1,16.2,-999,0.00,,,0.00,homebrew,2013-02-16 20:35:00,
2013-02-16 12:40:00,49.8,-99.9,30.11,SSW,203,5.6,15.4,-999,0.00,,,0.00,homebrew,2013-02-16 20:40:00,
2013-02-16 12:45:00,49.2,-99.9,30.10,SSW,211,5.3,11.0,-999,0.00,,,0.00,homebrew,2013-02-16 20:45:00,
2013-02-16 12:55:00,50.5,-99.9,30.10,SSW,206,5.0,11.6,-999,0.00,,,0.00,homebrew,2013-02-16 20:55:00,
2013-02-16 13:00:00,51.6,-99.9,30.10,SSW,204,5.2,10.2,-999,0.00,,,0.00,homebrew,2013-02-16 21:00:00,
2013-02-16 13:10:00,51.6,-99.9,30.09,SSW,204,5.4,14.5,-999,0.00,,,0.00,homebrew,2013-02-16 21:10:00,
2013-02-16 13:15:00,51.6,-99.9,30.09,SSW,205,6.0,17.3,-999,0.00,,,0.00,homebrew,2013-02-16 21:15:00,
2013-02-16 13:20:00,51.3,-99.9,30.09,SSW,208,5.6,16.3,-999,0.00,,,0.00,homebrew,2013-02-16 21:20:00,
2013-02-16 13:25:00,51.5,-99.9,30.09,SSW,205,5.8,10.9,-999,0.00,,,0.00,homebrew,2013-02-16 21:25:00,
2013-02-16 13:30:00,51.6,-99.9,30.09,SW,215,7.4,22.2,-999,0.00,,,0.00,homebrew,2013-02-16 21:30:00,
2013-02-16 13:35:00,51.9,-99.9,30.10,SSW,211,4.4,15.3,-999,0.00,,,0.00,homebrew,2013-02-16 21:35:00,
2013-02-16 13:45:00,52.7,-99.9,30.10,SSW,196,3.4,10.0,-999,0.00,,,0.00,homebrew,2013-02-16 21:45:00,
2013-02-16 13:50:00,51.3,-99.9,30.09,SSW,212,5.9,12.3,-999,0.00,,,0.00,homebrew,2013-02-16 21:50:00,
2013-02-16 13:55:00,50.5,-99.9,30.09,SSW,207,4.6,15.6,-999,0.00,,,0.00,homebrew,2013-02-16 21:55:00,
2013-02-16 14:00:00,50.4,-99.9,30.09,SSW,196,4.8,12.7,-999,0.00,,,0.00,homebrew,2013-02-16 22:00:00,
2013-02-16 14:05:00,51.2,-99.9,30.09,SSW,197,4.8,12.9,-999,0.00,,,0.00,homebrew,2013-02-16 22:05:00,
2013-02-16 14:10:00,52.0,-99.9,30.09,SSW,204,5.2,12.9,-999,0.00,,,0.00,homebrew,2013-02-16 22:10:00,
2013-02-16 14:20:00,51.5,-99.9,30.09,SSW,199,4.4,14.9,-999,0.00,,,0.00,homebrew,2013-02-16 22:20:00,
2013-02-16 14:25:00,51.7,-99.9,30.08,SSW,205,6.1,9.6,-999,0.00,,,0.00,homebrew,2013-02-16 22:25:00,
2013-02-16 14:35:00,52.0,-99.9,30.09,SSW,207,5.8,10.5,-999,0.00,,,0.00,homebrew,2013-02-16 22:35:00,
2013-02-16 14:40:00,51.7,-99.9,30.09,SSW,210,6.3,16.0,-999,0.00,,,0.00,homebrew,2013-02-16 22:40:00,
2013-02-16 14:45:00,50.8,-99.9,30.09,SSW,203,5.4,18.6,-999,0.00,,,0.00,homebrew,2013-02-16 22:45:00,
2013-02-16 14:50:00,50.7,-99.9,30.09,SSW,204,3.8,11.2,-999,0.00,,,0.00,homebrew,2013-02-16 22:50:00,
2013-02-16 14:55:00,51.1,-99.9,30.09,SSW,208,4.5,7.2,-999,0.00,,,0.00,homebrew,2013-02-16 22:55:00,
2013-02-16 15:00:00,50.9,-99.9,30.09,SW,214,3.9,10.9,-999,0.00,,,0.00,homebrew,2013-02-16 23:00:00,
2013-02-16 15:05:00,50.6,-99.9,30.09,SSW,206,4.0,16.4,-999,0.00,,,0.00,homebrew,2013-02-16 23:05:00,
2013-02-16 15:10:00,50.3,-99.9,30.09,SW,220,5.7,10.3,-999,0.00,,,0.00,homebrew,2013-02-16 23:10:00,
2013-02-16 15:15:00,50.2,-99.9,30.09,SSW,213,5.2,16.9,-999,0.00,,,0.00,homebrew,2013-02-16 23:15:00,
2013-02-16 15:25:00,50.0,-99.9,30.09,SW,216,5.5,14.1,-999,0.00,,,0.00,homebrew,2013-02-16 23:25:00,
2013-02-16 15:30:00,49.7,-99.9,30.10,SW,223,5.0,10.7,-999,0.00,,,0.00,homebrew,2013-02-16 23:30:00,
2013-02-16 15:35:00,49.5,-99.9,30.10,WSW,249,4.0,13.2,-999,0.00,,,0.00,homebrew,2013-02-16 23:35:00,
2013-02-16 15:40:00,49.4,-99.9,30.10,East,101,3.5,9.6,-999,0.00,,,0.00,homebrew,2013-02-16 23:40:00,
2013-02-16 15:45:00,47.8,-99.9,30.10,SE,125,1.5,6.8,-999,0.00,,,0.00,homebrew,2013-02-16 23:45:00,
2013-02-16 15:50:00,47.0,-99.9,30.10,ENE,70,1.7,4.7,-999,0.00,,,0.00,homebrew,2013-02-16 23:50:00,
2013-02-16 15:55:00,46.5,-99.9,30.10,ENE,71,1.1,3.9,-999,0.00,,,0.00,homebrew,2013-02-16 23:55:00,
2013-02-16 16:00:00,46.3,-99.9,30.11,ENE,73,1.3,2.1,-999,0.00,,,0.00,homebrew,2013-02-17 00:00:00,
2013-02-16 16:05:00,46.2,-99.9,30.11,SE,129,1.8,4.4,-999,0.00,,,0.00,homebrew,2013-02-17 00:05:00,
2013-02-16 16:15:00,45.6,-99.9,30.11,ESE,102,4.3,7.1,-999,0.00,,,0.00,homebrew,2013-02-17 00:15:00,
2013-02-16 16:20:00,45.3,-99.9,30.11,East,94,2.1,7.5,-999,0.00,,,0.00,homebrew,2013-02-17 00:20:00,
2013-02-16 16:25:00,45.5,-99.9,30.11,ENE,70,2.4,5.2,-999,0.00,,,0.00,homebrew,2013-02-17 00:25:00,
2013-02-16 16:30:00,45.2,-99.9,30.11,ESE,104,2.5,6.1,-999,0.00,,,0.00,homebrew,2013-02-17 00:30:00,
2013-02-16 16:35:00,44.7,-99.9,30.11,ESE,102,3.4,3.9,-999,0.00,,,0.00,homebrew,2013-02-17 00:35:00,
2013-02-16 16:40:00,44.4,-99.9,30.11,East,85,5.6,6.1,-999,0.00,,,0.00,homebrew,2013-02-17 00:40:00,
2013-02-16 16:45:00,44.0,-99.9,30.12,East,79,3.9,9.8,-999,0.00,,,0.00,homebrew,2013-02-17 00:45:00,
2013-02-16 16:50:00,43.6,-99.9,30.12,SE,140,0.8,7.0,-999,0.07,,,0.08,homebrew,2013-02-17 00:50:00,
2013-02-16 16:55:00,42.1,-99.9,30.12,SE,140,2.2,5.0,-999,0.11,,,0.12,homebrew,2013-02-17 00:55:00,
2013-02-16 17:00:00,41.2,-99.9,30.12,ENE,78,1.0,5.2,-999,0.14,,,0.15,homebrew,2013-02-17 01:00:00,
2013-02-16 17:05:00,41.5,-99.9,30.12,West,263,0.8,2.8,-999,0.15,,,0.16,homebrew,2013-02-17 01:05:00,
2013-02-16 17:10:00,41.6,-99.9,30.12,SE,145,2.3,2.8,-999,0.16,,,0.17,homebrew,2013-02-17 01:10:00,
2013-02-16 17:20:00,41.4,-99.9,30.12,SSE,147,1.2,4.0,-999,0.17,,,0.18,homebrew,2013-02-17 01:20:00,
2013-02-16 17:25:00,41.3,-99.9,30.12,ESE,102,3.4,5.5,-999,0.17,,,0.18,homebrew,2013-02-17 01:25:00,
2013-02-16 17:30:00,41.4,-99.9,30.12,East,99,2.1,7.2,-999,0.17,,,0.18,homebrew,2013-02-17 01:30:00,
2013-02-16 17:35:00,41.3,-99.9,30.12,East,94,3.3,8.0,-999,0.17,,,0.18,homebrew,2013-02-17 01:35:00,
2013-02-16 17:40:00,41.2,-99.9,30.12,East,85,3.0,6.2,-999,0.17,,,0.18,homebrew,2013-02-17 01:40:00,
2013-02-16 17:45:00,41.2,-99.9,30.12,East,86,2.2,5.5,-999,0.17,,,0.18,homebrew,2013-02-17 01:45:00,
2013-02-16 17:50:00,41.3,-99.9,30.12,East,88,3.8,5.1,-999,0.07,,,0.18,homebrew,2013-02-17 01:50:00,
2013-02-16 17:55:00,41.2,-99.9,30.12,East,93,4.3,6.7,-999,0.06,,,0.19,homebrew,2013-02-17 01:55:00,
2013-02-16 18:00:00,41.1,-99.9,30.12,ESE,103,3.4,8.2,-999,0.04,,,0.19,homebrew,2013-02-17 02:00:00,
2013-02-16 18:10:00,41.1,-99.9,30.12,East,95,2.8,6.7,-999,0.02,,,0.19,homebrew,2013-02-17 02:10:00,
2013-02-16 18:15:00,41.0,-99.9,30.12,ESE,116,2.6,5.6,-999,0.01,,,0.19,homebrew,2013-02-17 02:15:00,
2013-02-16 18:20:00,41.1,-99.9,30.12,East,79,1.7,6.5,-999,0.01,,,0.19,homebrew,2013-02-17 02:20:00,
2013-02-16 18:25:00,41.1,-99.9,30.12,East,96,1.9,5.5,-999,0.01,,,0.19,homebrew,2013-02-17 02:25:00,
2013-02-16 18:30:00,41.0,-99.9,30.12,East,87,2.5,6.4,-999,0.01,,,0.19,homebrew,2013-02-17 02:30:00,
2013-02-16 18:35:00,41.0,-99.9,30.12,ESE,112,2.6,5.8,-999,0.01,,,0.19,homebrew,2013-02-17 02:35:00,
2013-02-16 18:40:00,41.1,-99.9,30.12,East,89,2.9,5.8,-999,0.01,,,0.19,homebrew,2013-02-17 02:40:00,
2013-02-16 18:45:00,41.4,-99.9,30.13,ENE,74,2.9,6.0,-999,0.01,,,0.19,homebrew,2013-02-17 02:45:00,
2013-02-16 18:50:00,41.4,-99.9,30.13,ENE,64,0.9,4.0,-999,0.01,,,0.19,homebrew,2013-02-17 02:50:00,
2013-02-16 18:55:00,41.4,-99.9,30.13,ESE,102,3.6,3.7,-999,0.00,,,0.19,homebrew,2013-02-17 02:55:00,
2013-02-16 19:00:00,41.6,-99.9,30.13,ENE,64,0.8,6.8,-999,0.00,,,0.19,homebrew,2013-02-17 03:00:00,
2013-02-16 19:05:00,41.6,-99.9,30.13,SE,138,0.9,4.7,-999,0.00,,,0.19,homebrew,2013-02-17 03:05:00,
2013-02-16 19:10:00,41.6,-99.9,30.13,SE,143,0.0,3.2,-999,0.00,,,0.19,homebrew,2013-02-17 03:10:00,
2013-02-16 19:15:00,41.7,-99.9,30.13,SE,143,0.0,0.0,-999,0.00,,,0.19,homebrew,2013-02-17 03:15:00,
2013-02-16 19:20:00,41.8,-99.9,30.13,SE,143,0.0,0.0,-999,0.00,,,0.19,homebrew,2013-02-17 03:20:00,
2013-02-16 19:25:00,41.8,-99.9,30.13,SE,143,0.0,0.0,-999,0.00,,,0.19,homebrew,2013-02-17 03:25:00,
2013-02-16 19:30:00,42.0,-99.9,30.13,SE,143,0.0,0.0,-999,0.00,,,0.19,homebrew,2013-02-17 03:30:00,
2013-02-16 19:35:00,42.0,-99.9,30.13,SSW,197,1.0,0.0,-999,0.00,,,0.19,homebrew,2013-02-17 03:35:00,
2013-02-16 19:40:00,42.1,-99.9,30.13,SSW,206,1.4,6.6,-999,0.00,,,0.19,homebrew,2013-02-17 03:40:00,
2013-02-16 19:45:00,42.1,-99.9,30.12,SSW,205,1.0,6.2,-999,0.00,,,0.19,homebrew,2013-02-17 03:45:00,
2013-02-16 19:50:00,42.2,-99.9,30.13,SSW,196,0.9,4.3,-999,0.00,,,0.19,homebrew,2013-02-17 03:50:00,
2013-02-16 19:55:00,42.2,-99.9,30.13,SSW,205,2.0,9.1,-999,0.00,,,0.19,homebrew,2013-02-17 03:55:00,
2013-02-16 20:00:00,42.2,-99.9,30.13,SSW,202,1.3,7.8,-999,0.00,,,0.19,homebrew,2013-02-17 04:00:00,
2013-02-16 20:10:00,42.2,-99.9,30.13,SSW,193,1.7,6.8,-999,0.00,,,0.19,homebrew,2013-02-17 04:10:00,
2013-02-16 20:15:00,42.2,-99.9,30.14,SW,226,1.8,9.3,-999,0.00,,,0.19,homebrew,2013-02-17 04:15:00,
2013-02-16 20:20:00,42.2,-99.9,30.14,SW,232,0.4,5.0,-999,0.00,,,0.19,homebrew,2013-02-17 04:20:00,
2013-02-16 20:25:00,42.2,-99.9,30.14,SW,216,1.5,5.0,-999,0.00,,,0.19,homebrew,2013-02-17 04:25:00,
2013-02-16 20:30:00,42.2,-99.9,30.14,South,170,0.2,4.7,-999,0.01,,,0.20,homebrew,2013-02-17 04:30:00,
2013-02-16 20:35:00,42.1,-99.9,30.14,South,179,0.8,2.0,-999,0.01,,,0.20,homebrew,2013-02-17 04:35:00,
2013-02-16 20:40:00,42.0,-99.9,30.14,SSW,198,0.6,4.7,-999,0.01,,,0.20,homebrew,2013-02-17 04:40:00,
2013-02-16 20:45:00,41.9,-99.9,30.14,South,169,1.6,4.6,-999,0.01,,,0.20,homebrew,2013-02-17 04:45:00,
2013-02-16 20:50:00,41.9,-99.9,30.14,SE,137,2.9,5.4,-999,0.01,,,0.20,homebrew,2013-02-17 04:50:00,
2013-02-16 20:55:00,41.7,-99.9,30.14,SSE,160,0.1,7.3,-999,0.01,,,0.20,homebrew,2013-02-17 04:55:00,
2013-02-16 21:00:00,41.5,-99.9,30.14,SE,134,0.2,0.0,-999,0.01,,,0.20,homebrew,2013-02-17 05:00:00,
2013-02-16 21:05:00,41.3,-99.9,30.14,ESE,122,0.0,2.7,-999,0.01,,,0.20,homebrew,2013-02-17 05:05:00,
2013-02-16 21:10:00,41.0,-99.9,30.14,ESE,122,0.0,0.0,-999,0.02,,,0.21,homebrew,2013-02-17 05:10:00,
2013-02-16 21:15:00,40.7,-99.9,30.14,ESE,122,0.0,0.0,-999,0.02,,,0.21,homebrew,2013-02-17 05:15:00,
2013-02-16 21:20:00,40.8,-99.9,30.14,ESE,122,0.0,0.0,-999,0.02,,,0.21,homebrew,2013-02-17 05:20:00,
2013-02-16 21:25:00,40.8,-99.9,30.14,SE,143,0.6,0.0,-999,0.02,,,0.21,homebrew,2013-02-17 05:25:00,
2013-02-16 21:30:00,40.9,-99.9,30.14,SSW,203,0.6,3.7,-999,0.01,,,0.21,homebrew,2013-02-17 05:30:00,
2013-02-16 21:35:00,41.0,-99.9,30.14,SE,142,0.2,3.6,-999,0.01,,,0.21,homebrew,2013-02-17 05:35:00,
2013-02-16 21:40:00,41.1,-99.9,30.15,South,172,0.6,5.3,-999,0.01,,,0.21,homebrew,2013-02-17 05:40:00,
2013-02-16 21:45:00,41.2,-99.9,30.15,SSE,157,0.1,1.4,-999,0.01,,,0.21,homebrew,2013-02-17 05:45:00,
2013-02-16 21:50:00,41.3,-99.9,30.15,South,190,1.6,0.0,-999,0.01,,,0.21,homebrew,2013-02-17 05:50:00,
2013-02-16 22:00:00,40.4,-99.9,30.15,East,84,4.9,8.3,-999,0.01,,,0.21,homebrew,2013-02-17 06:00:00,
2013-02-16 22:05:00,40.1,-99.9,30.15,SE,133,2.2,7.1,-999,0.00,,,0.21,homebrew,2013-02-17 06:05:00,
2013-02-16 22:15:00,40.0,-99.9,30.15,SSE,160,0.5,5.5,-999,0.00,,,0.21,homebrew,2013-02-17 06:15:00,
2013-02-16 22:20:00,40.0,-99.9,30.15,SSE,152,0.6,2.7,-999,0.00,,,0.21,homebrew,2013-02-17 06:20:00,
2013-02-16 22:25:00,40.0,-99.9,30.15,SSE,153,0.6,4.8,-999,0.00,,,0.21,homebrew,2013-02-17 06:25:00,
2013-02-16 22:30:00,40.0,-99.9,30.15,East,99,1.0,3.9,-999,0.00,,,0.21,homebrew,2013-02-17 06:30:00,
2013-02-16 22:35:00,40.1,-99.9,30.15,East,94,0.0,2.9,-999,0.00,,,0.21,homebrew,2013-02-17 06:35:00,
2013-02-16 22:40:00,40.1,-99.9,30.15,East,94,0.0,0.0,-999,0.00,,,0.21,homebrew,2013-02-17 06:40:00,
2013-02-16 22:45:00,40.1,-99.9,30.15,ESE,109,0.6,0.0,-999,0.00,,,0.21,homebrew,2013-02-17 06:45:00,
2013-02-16 22:50:00,40.2,-99.9,30.16,ESE,118,0.0,5.0,-999,0.00,,,0.21,homebrew,2013-02-17 06:50:00,
2013-02-16 22:55:00,40.3,-99.9,30.16,East,98,0.2,0.0,-999,0.00,,,0.21,homebrew,2013-02-17 06:55:00,
2013-02-16 23:05:00,40.4,-99.9,30.16,SW,220,1.0,7.1,-999,0.00,,,0.21,homebrew,2013-02-17 07:05:00,
2013-02-16 23:10:00,40.4,-99.9,30.16,South,173,0.2,6.5,-999,0.00,,,0.21,homebrew,2013-02-17 07:10:00,
2013-02-16 23:15:00,40.4,-99.9,30.15,South,181,1.2,1.2,-999,0.00,,,0.21,homebrew,2013-02-17 07:15:00,
2013-02-16 23:20:00,40.3,-99.9,30.15,SSW,196,0.3,4.9,-999,0.00,,,0.21,homebrew,2013-02-17 07:20:00,
2013-02-16 23:25:00,40.3,-99.9,30.16,South,183,0.1,3.9,-999,0.00,,,0.21,homebrew,2013-02-17 07:25:00,
2013-02-16 23:30:00,40.3,-99.9,30.16,South,181,0.0,0.0,-999,0.00,,,0.21,homebrew,2013-02-17 07:30:00,
2013-02-16 23:35:00,40.2,-99.9,30.16,South,181,0.0,0.0,-999,0.00,,,0.21,homebrew,2013-02-17 07:35:00,
2013-02-16 23:40:00,40.1,-99.9,30.16,South,181,0.0,0.0,-999,0.00,,,0.21,homebrew,2013-02-17 07:40:00,
2013-02-16 23:45:00,40.2,-99.9,30.16,South,175,1.4,0.0,-999,0.00,,,0.00,homebrew,2013-02-17 07:45:00,
2013-02-16 23:55:00,40.5,-99.9,30.16,SSW,200,1.9,5.4,-999,0.00,,,0.00,homebrew,2013-02-17 07:55:00,